TimeMDT,TemperatureF,Dew PointF,Humidity,Sea Level PressureIn,VisibilityMPH,Wind Direction,Wind SpeedMPH,Gust SpeedMPH,PrecipitationIn,Events,Conditions,WindDirDegrees,DateUTC
12:53 AM,27.0,24.1,89,30.44,10.0,NNW,10.4,-,N/A,,Overcast,340,2012-10-06 06:53:00
1:13 AM,26.6,24.8,93,30.36,10.0,NNW,10.4,24.2,N/A,,Overcast,340,2012-10-06 07:13:00
1:27 AM,26.6,24.8,93,30.36,10.0,North,10.4,-,N/A,,Overcast,350,2012-10-06 07:27:00
1:37 AM,26.6,24.8,93,30.36,10.0,NNW,11.5,-,N/A,,Overcast,340,2012-10-06 07:37:00
1:42 AM,26.6,24.8,93,30.36,10.0,NNW,9.2,-,0.01,,Overcast,340,2012-10-06 07:42:00
1:53 AM,27.0,24.1,89,30.44,10.0,North,10.4,-,0.01,,Overcast,350,2012-10-06 07:53:00
2:17 AM,26.6,24.8,93,30.36,10.0,North,8.1,-,N/A,,Mostly Cloudy,350,2012-10-06 08:17:00
2:31 AM,26.6,24.8,93,30.36,10.0,NNW,11.5,20.7,N/A,,Mostly Cloudy,340,2012-10-06 08:31:00
2:53 AM,26.1,23.0,88,30.46,10.0,NNW,10.4,19.6,N/A,,Mostly Cloudy,340,2012-10-06 08:53:00
3:53 AM,26.1,23.0,88,30.44,10.0,NW,10.4,-,N/A,,Overcast,320,2012-10-06 09:53:00
4:40 AM,24.8,21.2,86,30.35,10.0,NNW,4.6,-,N/A,,Mostly Cloudy,340,2012-10-06 10:40:00
4:53 AM,24.1,21.9,91,30.46,10.0,Calm,Calm,-,N/A,,Mostly Cloudy,0,2012-10-06 10:53:00
5:12 AM,21.2,19.4,93,30.35,10.0,West,4.6,-,N/A,,Mostly Cloudy,270,2012-10-06 11:12:00
5:27 AM,19.4,19.4,100,30.35,10.0,WNW,5.8,-,N/A,,Scattered Clouds,300,2012-10-06 11:27:00
5:53 AM,19.0,17.1,92,30.48,10.0,West,6.9,-,N/A,,Clear,280,2012-10-06 11:53:00
6:53 AM,19.9,17.1,89,30.47,10.0,WSW,3.5,-,N/A,,Mostly Cloudy,240,2012-10-06 12:53:00
7:03 AM,19.4,17.6,93,30.35,10.0,WSW,4.6,-,N/A,,Scattered Clouds,240,2012-10-06 13:03:00
7:17 AM,19.4,17.6,93,30.35,10.0,West,5.8,-,N/A,,Mostly Cloudy,260,2012-10-06 13:17:00
7:48 AM,21.2,19.4,93,30.36,10.0,WSW,4.6,-,N/A,,Partly Cloudy,250,2012-10-06 13:48:00
7:53 AM,21.0,18.0,88,30.48,10.0,WSW,4.6,-,N/A,,Partly Cloudy,250,2012-10-06 13:53:00
8:53 AM,21.9,17.1,82,30.48,10.0,WSW,5.8,-,N/A,,Clear,240,2012-10-06 14:53:00
9:53 AM,26.1,19.9,78,30.46,10.0,SSE,5.8,-,N/A,,Clear,160,2012-10-06 15:53:00
10:53 AM,27.0,23.0,85,30.45,10.0,South,10.4,-,N/A,,Clear,170,2012-10-06 16:53:00
11:53 AM,28.9,24.1,82,30.43,10.0,SSE,10.4,-,N/A,,Clear,160,2012-10-06 17:53:00
12:53 PM,30.9,25.0,79,30.41,10.0,South,11.5,-,N/A,,Clear,170,2012-10-06 18:53:00
1:53 PM,33.1,26.1,75,30.37,10.0,South,9.2,-,N/A,,Clear,170,2012-10-06 19:53:00
2:53 PM,35.1,25.0,67,30.35,10.0,SSE,8.1,-,N/A,,Clear,160,2012-10-06 20:53:00
3:53 PM,37.0,16.0,42,30.32,10.0,SE,6.9,-,N/A,,Clear,140,2012-10-06 21:53:00
4:53 PM,37.0,10.9,34,30.32,10.0,South,3.5,-,N/A,,Clear,190,2012-10-06 22:53:00
5:53 PM,36.0,21.0,55,30.32,10.0,South,3.5,-,N/A,,Clear,180,2012-10-06 23:53:00
6:53 PM,30.9,23.0,72,30.32,10.0,SW,4.6,-,N/A,,Clear,230,2012-10-07 00:53:00
7:53 PM,32.0,23.0,69,30.31,10.0,SW,3.5,-,N/A,,Clear,230,2012-10-07 01:53:00
8:53 PM,28.0,21.9,78,30.33,10.0,WSW,8.1,-,N/A,,Clear,250,2012-10-07 02:53:00
9:53 PM,28.9,21.0,72,30.30,10.0,West,6.9,-,N/A,,Clear,260,2012-10-07 03:53:00
10:53 PM,28.0,18.0,66,30.28,10.0,WSW,5.8,-,N/A,,Clear,240,2012-10-07 04:53:00
11:53 PM,28.9,16.0,58,30.26,10.0,Calm,Calm,-,N/A,,Clear,0,2012-10-07 05:53:00